iso_date,epoch_date,Year,Hour,Min,DOY,POS_DOY,Lat,Lon,BP,Ts,Ta,has_bp,has_ts,has_ta,BuoyID,Buoy_Type,Buoy_Owner,Logistics,Hemisphere
2020-11-04T13:59:57Z,1604498397,2020,14,0,309.5833,309.5,83.9652,-141.251,996.1,-19.3,-19.1,yes,yes,yes,300234066891270,SVP,EC,ICE-PPR,North
2020-11-04T15:00:00Z,1604502000,2020,15,0,309.625,309.625,83.9434,-141.0976,995.1,-19.1,-18.8,yes,yes,yes,300234066891270,SVP,EC,ICE-PPR,North
2020-11-04T16:00:02Z,1604505603,2020,16,0,309.6667,309.625,83.9434,-141.0976,994.2,-19.0,-18.7,yes,yes,yes,300234066891270,SVP,EC,ICE-PPR,North
2020-11-04T16:59:57Z,1604509197,2020,17,0,309.7083,309.625,83.9434,-141.0976,993.1,-18.9,-18.6,yes,yes,yes,300234066891270,SVP,EC,ICE-PPR,North
2020-11-04T18:00:00Z,1604512800,2020,18,0,309.75,309.75,83.9232,-140.9426,992.2,-19.1,-18.8,yes,yes,yes,300234066891270,SVP,EC,ICE-PPR,North
2020-11-04T19:00:02Z,1604516403,2020,19,0,309.7917,309.75,83.9232,-140.9426,990.9,-18.9,-18.7,yes,yes,yes,300234066891270,SVP,EC,ICE-PPR,North
2020-11-04T19:59:57Z,1604519997,2020,20,0,309.8333,309.75,83.9232,-140.9426,990.5,-18.6,-18.4,yes,yes,yes,300234066891270,SVP,EC,ICE-PPR,North
2020-11-04T21:00:00Z,1604523600,2020,21,0,309.875,309.875,83.903,-140.7624,989.9,-18.3,-18.1,yes,yes,yes,300234066891270,SVP,EC,ICE-PPR,North
2020-11-04T22:00:02Z,1604527203,2020,22,0,309.9167,309.875,83.903,-140.7624,989.2,-17.9,-17.7,yes,yes,yes,300234066891270,SVP,EC,ICE-PPR,North
2020-11-04T22:59:57Z,1604530797,2020,23,0,309.9583,309.875,83.903,-140.7624,988.2,-17.5,-17.3,yes,yes,yes,300234066891270,SVP,EC,ICE-PPR,North
2020-11-05T00:00:00Z,1604534400,2020,0,0,310.0,310.0,83.884,-140.5598,987.2,-17.0,-16.9,yes,yes,yes,300234066891270,SVP,EC,ICE-PPR,North
2020-11-05T01:00:02Z,1604538003,2020,1,0,310.0417,310.0,83.884,-140.5598,986.0,-16.3,-16.2,yes,yes,yes,300234066891270,SVP,EC,ICE-PPR,North
2020-11-05T01:59:57Z,1604541597,2020,2,0,310.0833,310.0,83.884,-140.5598,984.5,-15.4,-15.6,yes,yes,yes,300234066891270,SVP,EC,ICE-PPR,North
2020-11-05T03:00:00Z,1604545200,2020,3,0,310.125,310.125,83.8624,-140.3432,982.8,-14.1,-14.6,yes,yes,yes,300234066891270,SVP,EC,ICE-PPR,North
2020-11-05T04:00:02Z,1604548803,2020,4,0,310.1667,310.125,83.8624,-140.3432,981.7,-12.6,-13.2,yes,yes,yes,300234066891270,SVP,EC,ICE-PPR,North
2020-11-05T04:59:57Z,1604552397,2020,5,0,310.2083,310.125,83.8624,-140.3432,980.5,-10.6,-11.6,yes,yes,yes,300234066891270,SVP,EC,ICE-PPR,North
2020-11-05T06:00:00Z,1604556000,2020,6,0,310.25,310.25,83.8382,-140.1928,979.6,-8.5,-9.6,yes,yes,yes,300234066891270,SVP,EC,ICE-PPR,North
2020-11-05T07:00:02Z,1604559603,2020,7,0,310.2917,310.25,83.8382,-140.1928,979.8,-8.2,-8.6,yes,yes,yes,300234066891270,SVP,EC,ICE-PPR,North
2020-11-05T07:59:57Z,1604563197,2020,8,0,310.3333,310.25,83.8382,-140.1928,979.6,-8.9,-8.8,yes,yes,yes,300234066891270,SVP,EC,ICE-PPR,North
2020-11-05T09:00:00Z,1604566800,2020,9,0,310.375,310.375,83.8186,-140.2312,980.1,-10.6,-9.8,yes,yes,yes,300234066891270,SVP,EC,ICE-PPR,North
2020-11-05T10:00:02Z,1604570403,2020,10,0,310.4167,310.375,83.8186,-140.2312,980.7,-11.5,-10.8,yes,yes,yes,300234066891270,SVP,EC,ICE-PPR,North
2020-11-05T10:59:57Z,1604573997,2020,11,0,310.4583,310.375,83.8186,-140.2312,981.3,-13.4,-12.0,yes,yes,yes,300234066891270,SVP,EC,ICE-PPR,North
2020-11-05T12:00:00Z,1604577600,2020,12,0,310.5,310.5,83.8046,-140.3384,981.7,-13.6,-12.4,yes,yes,yes,300234066891270,SVP,EC,ICE-PPR,North
2020-11-05T13:00:02Z,1604581203,2020,13,0,310.5417,310.5,83.8046,-140.3384,981.9,-13.6,-12.5,yes,yes,yes,300234066891270,SVP,EC,ICE-PPR,North
2020-11-05T13:59:57Z,1604584797,2020,14,0,310.5833,310.5,83.8046,-140.3384,982.3,-13.6,-12.6,yes,yes,yes,300234066891270,SVP,EC,ICE-PPR,North
2020-11-05T15:00:00Z,1604588400,2020,15,0,310.625,310.625,83.7894,-140.4352,982.7,-13.5,-12.8,yes,yes,yes,300234066891270,SVP,EC,ICE-PPR,North
2020-11-05T16:00:02Z,1604592003,2020,16,0,310.6667,310.625,83.7894,-140.4352,983.5,-13.7,-12.9,yes,yes,yes,300234066891270,SVP,EC,ICE-PPR,North
2020-11-05T16:59:57Z,1604595597,2020,17,0,310.7083,310.625,83.7894,-140.4352,984.5,-14.2,-13.1,yes,yes,yes,300234066891270,SVP,EC,ICE-PPR,North
2020-11-05T18:00:00Z,1604599200,2020,18,0,310.75,310.75,83.7726,-140.6132,985.6,-15.4,-13.6,yes,yes,yes,300234066891270,SVP,EC,ICE-PPR,North
2020-11-05T19:00:02Z,1604602803,2020,19,0,310.7917,310.75,83.7726,-140.6132,986.2,-16.5,-14.4,yes,yes,yes,300234066891270,SVP,EC,ICE-PPR,North
2020-11-05T19:59:57Z,1604606397,2020,20,0,310.8333,310.75,83.7726,-140.6132,987.5,-16.6,-15.0,yes,yes,yes,300234066891270,SVP,EC,ICE-PPR,North
2020-11-05T21:00:00Z,1604610000,2020,21,0,310.875,310.875,83.7634,-140.848,988.5,-16.2,-15.2,yes,yes,yes,300234066891270,SVP,EC,ICE-PPR,North
2020-11-05T22:00:02Z,1604613603,2020,22,0,310.9167,310.875,83.7634,-140.848,989.5,-15.8,-15.3,yes,yes,yes,300234066891270,SVP,EC,ICE-PPR,North
2020-11-05T22:59:57Z,1604617197,2020,23,0,310.9583,310.875,83.7634,-140.848,990.3,-17.1,-15.4,yes,yes,yes,300234066891270,SVP,EC,ICE-PPR,North
2020-11-06T00:00:00Z,1604620800,2020,0,0,311.0,311.0,83.7616,-141.0448,991.2,-17.9,-15.9,yes,yes,yes,300234066891270,SVP,EC,ICE-PPR,North
2020-11-06T01:00:02Z,1604624403,2020,1,0,311.0417,311.0,83.7616,-141.0448,991.7,-17.7,-16.0,yes,yes,yes,300234066891270,SVP,EC,ICE-PPR,North
2020-11-06T01:59:57Z,1604627997,2020,2,0,311.0833,311.0,83.7616,-141.0448,992.5,-17.6,-16.8,yes,yes,yes,300234066891270,SVP,EC,ICE-PPR,North
2020-11-06T03:00:00Z,1604631600,2020,3,0,311.125,311.125,83.7572,-141.1968,993.1,-18.2,-17.8,yes,yes,yes,300234066891270,SVP,EC,ICE-PPR,North
2020-11-06T04:00:02Z,1604635203,2020,4,0,311.1667,311.125,83.7572,-141.1968,994.1,-20.5,-20.0,yes,yes,yes,300234066891270,SVP,EC,ICE-PPR,North
2020-11-06T04:59:57Z,1604638797,2020,5,0,311.2083,311.125,83.7572,-141.1968,994.9,-21.3,-20.9,yes,yes,yes,300234066891270,SVP,EC,ICE-PPR,North
2020-11-06T06:00:00Z,1604642400,2020,6,0,311.25,311.25,83.7516,-141.3756,995.5,-21.7,-21.3,yes,yes,yes,300234066891270,SVP,EC,ICE-PPR,North
2020-11-06T07:00:02Z,1604646003,2020,7,0,311.2917,311.25,83.7516,-141.3756,996.2,-22.1,-21.7,yes,yes,yes,300234066891270,SVP,EC,ICE-PPR,North
2020-11-06T07:59:57Z,1604649597,2020,8,0,311.3333,311.25,83.7516,-141.3756,997.2,-22.4,-22.0,yes,yes,yes,300234066891270,SVP,EC,ICE-PPR,North
2020-11-06T09:00:00Z,1604653200,2020,9,0,311.375,311.375,83.7504,-141.5464,998.2,-22.7,-22.3,yes,yes,yes,300234066891270,SVP,EC,ICE-PPR,North
2020-11-06T10:00:02Z,1604656803,2020,10,0,311.4167,311.375,83.7504,-141.5464,999.0,-22.9,-22.6,yes,yes,yes,300234066891270,SVP,EC,ICE-PPR,North
2020-11-06T10:59:57Z,1604660397,2020,11,0,311.4583,311.375,83.7504,-141.5464,999.4,-23.0,-22.6,yes,yes,yes,300234066891270,SVP,EC,ICE-PPR,North
2020-11-06T12:00:00Z,1604664000,2020,12,0,311.5,311.5,83.7512,-141.6978,1000.0,-23.2,-22.9,yes,yes,yes,300234066891270,SVP,EC,ICE-PPR,North
2020-11-06T13:00:02Z,1604667603,2020,13,0,311.5417,311.5,83.7512,-141.6978,1000.8,-23.3,-23.0,yes,yes,yes,300234066891270,SVP,EC,ICE-PPR,North
2020-11-06T13:59:57Z,1604671197,2020,14,0,311.5833,311.5,83.7512,-141.6978,1001.7,-23.6,-23.3,yes,yes,yes,300234066891270,SVP,EC,ICE-PPR,North
2020-11-06T15:00:00Z,1604674800,2020,15,0,311.625,311.625,83.7522,-141.8164,1002.3,-23.8,-23.5,yes,yes,yes,300234066891270,SVP,EC,ICE-PPR,North
2020-11-06T16:00:02Z,1604678403,2020,16,0,311.6667,311.625,83.7522,-141.8164,1002.8,-24.1,-23.7,yes,yes,yes,300234066891270,SVP,EC,ICE-PPR,North
2020-11-06T16:59:57Z,1604681997,2020,17,0,311.7083,311.625,83.7522,-141.8164,1003.5,-24.0,-23.7,yes,yes,yes,300234066891270,SVP,EC,ICE-PPR,North
2020-11-06T18:00:00Z,1604685600,2020,18,0,311.75,311.75,83.749,-141.9192,1004.3,-24.1,-23.8,yes,yes,yes,300234066891270,SVP,EC,ICE-PPR,North
2020-11-06T19:00:02Z,1604689203,2020,19,0,311.7917,311.75,83.749,-141.9192,1004.9,-24.1,-23.9,yes,yes,yes,300234066891270,SVP,EC,ICE-PPR,North
2020-11-06T19:59:57Z,1604692797,2020,20,0,311.8333,311.75,83.749,-141.9192,1005.7,-24.2,-24.0,yes,yes,yes,300234066891270,SVP,EC,ICE-PPR,North
2020-11-06T21:00:00Z,1604696400,2020,21,0,311.875,311.875,83.7466,-142.0394,1006.4,-24.3,-24.1,yes,yes,yes,300234066891270,SVP,EC,ICE-PPR,North
2020-11-06T22:00:02Z,1604700003,2020,22,0,311.9167,311.875,83.7466,-142.0394,1007.0,-24.2,-24.0,yes,yes,yes,300234066891270,SVP,EC,ICE-PPR,North
2020-11-06T22:59:57Z,1604703597,2020,23,0,311.9583,311.875,83.7466,-142.0394,1007.3,-23.9,-23.8,yes,yes,yes,300234066891270,SVP,EC,ICE-PPR,North
2020-11-07T00:00:00Z,1604707200,2020,0,0,312.0,312.0,83.7462,-142.1352,1007.9,-24.4,-24.2,yes,yes,yes,300234066891270,SVP,EC,ICE-PPR,North
2020-11-07T01:00:02Z,1604710803,2020,1,0,312.0417,312.0,83.7462,-142.1352,1008.2,-25.8,-25.5,yes,yes,yes,300234066891270,SVP,EC,ICE-PPR,North
2020-11-07T01:59:57Z,1604714397,2020,2,0,312.0833,312.0,83.7462,-142.1352,1008.5,-24.8,-24.7,yes,yes,yes,300234066891270,SVP,EC,ICE-PPR,North
2020-11-07T03:00:00Z,1604718000,2020,3,0,312.125,312.125,83.7454,-142.1732,1008.7,-26.1,-25.9,yes,yes,yes,300234066891270,SVP,EC,ICE-PPR,North
2020-11-07T04:00:02Z,1604721603,2020,4,0,312.1667,312.125,83.7454,-142.1732,1008.9,-26.1,-25.9,yes,yes,yes,300234066891270,SVP,EC,ICE-PPR,North
2020-11-07T04:59:57Z,1604725197,2020,5,0,312.2083,312.125,83.7454,-142.1732,1009.3,-26.2,-26.0,yes,yes,yes,300234066891270,SVP,EC,ICE-PPR,North
2020-11-07T06:00:00Z,1604728800,2020,6,0,312.25,312.25,83.743,-142.1974,1009.5,-25.3,-25.2,yes,yes,yes,300234066891270,SVP,EC,ICE-PPR,North
2020-11-07T07:00:02Z,1604732403,2020,7,0,312.2917,312.25,83.743,-142.1974,1009.6,-23.6,-23.6,yes,yes,yes,300234066891270,SVP,EC,ICE-PPR,North
2020-11-07T07:59:57Z,1604735997,2020,8,0,312.3333,312.25,83.743,-142.1974,1009.9,-23.9,-24.0,yes,yes,yes,300234066891270,SVP,EC,ICE-PPR,North
2020-11-07T09:00:00Z,1604739600,2020,9,0,312.375,312.375,83.7412,-142.2336,1010.0,-25.3,-25.2,yes,yes,yes,300234066891270,SVP,EC,ICE-PPR,North
2020-11-07T10:00:02Z,1604743203,2020,10,0,312.4167,312.375,83.7412,-142.2336,1010.1,-25.8,-25.8,yes,yes,yes,300234066891270,SVP,EC,ICE-PPR,North
2020-11-07T10:59:57Z,1604746797,2020,11,0,312.4583,312.375,83.7412,-142.2336,1010.0,-25.9,-25.8,yes,yes,yes,300234066891270,SVP,EC,ICE-PPR,North
2020-11-07T12:00:00Z,1604750400,2020,12,0,312.5,312.5,83.7436,-142.25,1010.0,-26.7,-26.5,yes,yes,yes,300234066891270,SVP,EC,ICE-PPR,North
2020-11-07T13:00:02Z,1604754003,2020,13,0,312.5417,312.5,83.7436,-142.25,1009.9,-26.2,-25.7,yes,yes,yes,300234066891270,SVP,EC,ICE-PPR,North
2020-11-07T13:59:57Z,1604757597,2020,14,0,312.5833,312.5,83.7436,-142.25,1009.9,-23.3,-23.0,yes,yes,yes,300234066891270,SVP,EC,ICE-PPR,North
2020-11-07T15:00:00Z,1604761200,2020,15,0,312.625,312.625,83.7466,-142.2194,1009.8,-22.6,-22.2,yes,yes,yes,300234066891270,SVP,EC,ICE-PPR,North
2020-11-07T16:00:02Z,1604764803,2020,16,0,312.6667,312.625,83.7466,-142.2194,1009.9,-21.7,-21.3,yes,yes,yes,300234066891270,SVP,EC,ICE-PPR,North
2020-11-07T16:59:57Z,1604768397,2020,17,0,312.7083,312.625,83.7466,-142.2194,1010.0,-21.3,-20.9,yes,yes,yes,300234066891270,SVP,EC,ICE-PPR,North
2020-11-07T18:00:00Z,1604772000,2020,18,0,312.75,312.75,83.7482,-142.1854,1010.1,-20.7,-20.4,yes,yes,yes,300234066891270,SVP,EC,ICE-PPR,North
2020-11-07T19:00:02Z,1604775603,2020,19,0,312.7917,312.75,83.7482,-142.1854,1010.4,-20.8,-20.7,yes,yes,yes,300234066891270,SVP,EC,ICE-PPR,North
2020-11-07T19:59:57Z,1604779197,2020,20,0,312.8333,312.75,83.7482,-142.1854,1010.7,-24.1,-23.7,yes,yes,yes,300234066891270,SVP,EC,ICE-PPR,North
2020-11-07T21:00:00Z,1604782800,2020,21,0,312.875,312.875,83.752,-142.1928,1011.1,-26.1,-25.6,yes,yes,yes,300234066891270,SVP,EC,ICE-PPR,North
2020-11-07T22:00:02Z,1604786403,2020,22,0,312.9167,312.875,83.752,-142.1928,1011.8,-27.3,-26.7,yes,yes,yes,300234066891270,SVP,EC,ICE-PPR,North
2020-11-07T22:59:57Z,1604789997,2020,23,0,312.9583,312.875,83.752,-142.1928,1012.3,-27.8,-27.1,yes,yes,yes,300234066891270,SVP,EC,ICE-PPR,North
2020-11-08T00:00:00Z,1604793600,2020,0,0,313.0,313.0,83.7582,-142.1984,1012.5,-28.2,-27.4,yes,yes,yes,300234066891270,SVP,EC,ICE-PPR,North
2020-11-08T01:00:02Z,1604797203,2020,1,0,313.0417,313.0,83.7582,-142.1984,1012.7,-28.0,-27.2,yes,yes,yes,300234066891270,SVP,EC,ICE-PPR,North
2020-11-08T01:59:57Z,1604800797,2020,2,0,313.0833,313.0,83.7582,-142.1984,1013.3,-28.4,-27.6,yes,yes,yes,300234066891270,SVP,EC,ICE-PPR,North
2020-11-08T03:00:00Z,1604804400,2020,3,0,313.125,313.125,83.7634,-142.1808,1013.8,-27.6,-26.9,yes,yes,yes,300234066891270,SVP,EC,ICE-PPR,North
2020-11-08T04:00:02Z,1604808003,2020,4,0,313.1667,313.125,83.7634,-142.1808,1014.2,-25.5,-24.9,yes,yes,yes,300234066891270,SVP,EC,ICE-PPR,North
2020-11-08T04:59:57Z,1604811597,2020,5,0,313.2083,313.125,83.7634,-142.1808,1014.5,-24.8,-24.0,yes,yes,yes,300234066891270,SVP,EC,ICE-PPR,North
2020-11-08T06:00:00Z,1604815200,2020,6,0,313.25,313.25,83.7664,-142.1694,1014.7,-25.3,-25.2,yes,yes,yes,300234066891270,SVP,EC,ICE-PPR,North
2020-11-08T07:00:02Z,1604818803,2020,7,0,313.2917,313.25,83.7664,-142.1694,1015.2,-26.8,-26.6,yes,yes,yes,300234066891270,SVP,EC,ICE-PPR,North
2020-11-08T07:59:57Z,1604822397,2020,8,0,313.3333,313.25,83.7664,-142.1694,1015.4,-27.7,-27.6,yes,yes,yes,300234066891270,SVP,EC,ICE-PPR,North
2020-11-08T09:00:00Z,1604826000,2020,9,0,313.375,313.375,83.769,-142.1704,1015.6,-28.1,-27.8,yes,yes,yes,300234066891270,SVP,EC,ICE-PPR,North
2020-11-08T10:00:02Z,1604829603,2020,10,0,313.4167,313.375,83.769,-142.1704,1015.8,-28.4,-27.9,yes,yes,yes,300234066891270,SVP,EC,ICE-PPR,North
2020-11-08T10:59:57Z,1604833197,2020,11,0,313.4583,313.375,83.769,-142.1704,1015.8,-28.0,-27.6,yes,yes,yes,300234066891270,SVP,EC,ICE-PPR,North
2020-11-08T12:00:00Z,1604836800,2020,12,0,313.5,313.5,83.7718,-142.148,1015.6,-26.1,-25.8,yes,yes,yes,300234066891270,SVP,EC,ICE-PPR,North
2020-11-08T13:00:02Z,1604840403,2020,13,0,313.5417,313.5,83.7718,-142.148,1015.3,-23.2,-23.0,yes,yes,yes,300234066891270,SVP,EC,ICE-PPR,North
2020-11-08T13:59:57Z,1604843997,2020,14,0,313.5833,313.5,83.7718,-142.148,1014.9,-22.1,-22.0,yes,yes,yes,300234066891270,SVP,EC,ICE-PPR,North
2020-11-08T15:00:00Z,1604847600,2020,15,0,313.625,313.625,83.7716,-142.0826,1014.5,-21.1,-21.2,yes,yes,yes,300234066891270,SVP,EC,ICE-PPR,North
2020-11-08T16:00:02Z,1604851203,2020,16,0,313.6667,313.625,83.7716,-142.0826,1014.1,-19.6,-19.8,yes,yes,yes,300234066891270,SVP,EC,ICE-PPR,North
2020-11-08T16:59:57Z,1604854797,2020,17,0,313.7083,313.625,83.7716,-142.0826,1013.5,-18.9,-19.0,yes,yes,yes,300234066891270,SVP,EC,ICE-PPR,North
2020-11-08T18:00:00Z,1604858400,2020,18,0,313.75,313.75,83.768,-141.9958,1013.2,-17.8,-17.9,yes,yes,yes,300234066891270,SVP,EC,ICE-PPR,North
2020-11-08T19:00:02Z,1604862003,2020,19,0,313.7917,313.75,83.768,-141.9958,1012.6,-17.2,-17.3,yes,yes,yes,300234066891270,SVP,EC,ICE-PPR,North
2020-11-08T19:59:57Z,1604865597,2020,20,0,313.8333,313.75,83.768,-141.9958,1012.2,-16.9,-17.0,yes,yes,yes,300234066891270,SVP,EC,ICE-PPR,North
2020-11-08T21:00:00Z,1604869200,2020,21,0,313.875,313.875,83.7632,-141.9206,1012.2,-16.5,-16.7,yes,yes,yes,300234066891270,SVP,EC,ICE-PPR,North
2020-11-08T22:00:02Z,1604872803,2020,22,0,313.9167,313.875,83.7632,-141.9206,1011.9,-16.8,-16.9,yes,yes,yes,300234066891270,SVP,EC,ICE-PPR,North
2020-11-08T22:59:57Z,1604876397,2020,23,0,313.9583,313.875,83.7632,-141.9206,1011.6,-17.7,-17.1,yes,yes,yes,300234066891270,SVP,EC,ICE-PPR,North
2020-11-09T00:00:00Z,1604880000,2020,0,0,314.0,314.0,83.761,-141.8604,1011.3,-17.2,-17.3,yes,yes,yes,300234066891270,SVP,EC,ICE-PPR,North
2020-11-09T01:00:02Z,1604883603,2020,1,0,314.0417,314.0,83.761,-141.8604,1011.0,-14.7,-15.7,yes,yes,yes,300234066891270,SVP,EC,ICE-PPR,North
2020-11-09T01:59:57Z,1604887197,2020,2,0,314.0833,314.0,83.761,-141.8604,1010.9,-14.4,-14.9,yes,yes,yes,300234066891270,SVP,EC,ICE-PPR,North
2020-11-09T03:00:00Z,1604890800,2020,3,0,314.125,314.125,83.7568,-141.818,1011.0,-14.1,-14.7,yes,yes,yes,300234066891270,SVP,EC,ICE-PPR,North
2020-11-09T04:00:02Z,1604894403,2020,4,0,314.1667,314.125,83.7568,-141.818,1011.2,-14.0,-14.4,yes,yes,yes,300234066891270,SVP,EC,ICE-PPR,North
2020-11-09T04:59:57Z,1604897997,2020,5,0,314.2083,314.125,83.7568,-141.818,1011.3,-12.6,-13.9,yes,yes,yes,300234066891270,SVP,EC,ICE-PPR,North
2020-11-09T06:00:00Z,1604901600,2020,6,0,314.25,314.25,83.75,-141.8218,1011.4,-11.1,-12.6,yes,yes,yes,300234066891270,SVP,EC,ICE-PPR,North
2020-11-09T07:00:02Z,1604905203,2020,7,0,314.2917,314.25,83.75,-141.8218,1011.7,-10.1,-11.7,yes,yes,yes,300234066891270,SVP,EC,ICE-PPR,North
2020-11-09T07:59:57Z,1604908797,2020,8,0,314.3333,314.25,83.75,-141.8218,1011.9,-9.7,-11.1,yes,yes,yes,300234066891270,SVP,EC,ICE-PPR,North
2020-11-09T09:00:00Z,1604912400,2020,9,0,314.375,314.375,83.7436,-141.8578,1012.4,-9.7,-10.8,yes,yes,yes,300234066891270,SVP,EC,ICE-PPR,North
2020-11-09T10:00:02Z,1604916003,2020,10,0,314.4167,314.375,83.7436,-141.8578,1012.7,-9.6,-10.5,yes,yes,yes,300234066891270,SVP,EC,ICE-PPR,North
2020-11-09T10:59:57Z,1604919597,2020,11,0,314.4583,314.375,83.7436,-141.8578,1012.8,-9.7,-10.4,yes,yes,yes,300234066891270,SVP,EC,ICE-PPR,North
2020-11-09T12:00:00Z,1604923200,2020,12,0,314.5,314.5,83.7378,-141.8858,1013.0,-9.9,-10.3,yes,yes,yes,300234066891270,SVP,EC,ICE-PPR,North
2020-11-09T13:00:02Z,1604926803,2020,13,0,314.5417,314.5,83.7378,-141.8858,1013.3,-10.8,-10.6,yes,yes,yes,300234066891270,SVP,EC,ICE-PPR,North
2020-11-09T13:59:57Z,1604930397,2020,14,0,314.5833,314.5,83.7378,-141.8858,1013.5,-11.5,-11.1,yes,yes,yes,300234066891270,SVP,EC,ICE-PPR,North
2020-11-09T15:00:00Z,1604934000,2020,15,0,314.625,314.625,83.7304,-141.8934,1013.8,-10.6,-10.8,yes,yes,yes,300234066891270,SVP,EC,ICE-PPR,North
2020-11-09T16:00:02Z,1604937603,2020,16,0,314.6667,314.625,83.7304,-141.8934,1014.1,-11.1,-10.8,yes,yes,yes,300234066891270,SVP,EC,ICE-PPR,North
2020-11-09T16:59:57Z,1604941197,2020,17,0,314.7083,314.625,83.7304,-141.8934,1014.5,-12.2,-11.4,yes,yes,yes,300234066891270,SVP,EC,ICE-PPR,North
2020-11-09T18:00:00Z,1604944800,2020,18,0,314.75,314.75,83.7198,-141.9,1014.7,-12.5,-11.8,yes,yes,yes,300234066891270,SVP,EC,ICE-PPR,North
2020-11-09T19:00:02Z,1604948403,2020,19,0,314.7917,314.75,83.7198,-141.9,1015.0,-14.1,-12.6,yes,yes,yes,300234066891270,SVP,EC,ICE-PPR,North
2020-11-09T19:59:57Z,1604951997,2020,20,0,314.8333,314.75,83.7198,-141.9,1015.4,-15.8,-14.5,yes,yes,yes,300234066891270,SVP,EC,ICE-PPR,North
2020-11-09T21:00:00Z,1604955600,2020,21,0,314.875,314.875,83.7094,-141.921,1015.6,-13.1,-13.6,yes,yes,yes,300234066891270,SVP,EC,ICE-PPR,North
2020-11-09T22:00:02Z,1604959203,2020,22,0,314.9167,314.875,83.7094,-141.921,1015.7,-11.9,-12.3,yes,yes,yes,300234066891270,SVP,EC,ICE-PPR,North
2020-11-09T22:59:57Z,1604962797,2020,23,0,314.9583,314.875,83.7094,-141.921,1016.0,-11.9,-11.9,yes,yes,yes,300234066891270,SVP,EC,ICE-PPR,North
2020-11-10T00:00:00Z,1604966400,2020,0,0,315.0,315.0,83.7,-141.9158,1016.1,-12.0,-11.7,yes,yes,yes,300234066891270,SVP,EC,ICE-PPR,North
2020-11-10T01:00:02Z,1604970003,2020,1,0,315.0417,315.0,83.7,-141.9158,1016.1,-12.4,-11.6,yes,yes,yes,300234066891270,SVP,EC,ICE-PPR,North
2020-11-10T01:59:57Z,1604973597,2020,2,0,315.0833,315.0,83.7,-141.9158,1016.3,-13.0,-11.6,yes,yes,yes,300234066891270,SVP,EC,ICE-PPR,North
2020-11-10T03:00:00Z,1604977200,2020,3,0,315.125,315.125,83.6892,-141.884,1016.2,-13.4,-11.7,yes,yes,yes,300234066891270,SVP,EC,ICE-PPR,North
2020-11-10T04:00:02Z,1604980803,2020,4,0,315.1667,315.125,83.6892,-141.884,1016.6,-14.0,-11.8,yes,yes,yes,300234066891270,SVP,EC,ICE-PPR,North
2020-11-10T04:59:57Z,1604984397,2020,5,0,315.2083,315.125,83.6892,-141.884,1016.7,-14.9,-12.1,yes,yes,yes,300234066891270,SVP,EC,ICE-PPR,North
2020-11-10T06:00:00Z,1604988000,2020,6,0,315.25,315.25,83.6764,-141.8724,1016.8,-15.5,-12.5,yes,yes,yes,300234066891270,SVP,EC,ICE-PPR,North
2020-11-10T07:00:02Z,1604991603,2020,7,0,315.2917,315.25,83.6764,-141.8724,1016.7,-15.1,-12.9,yes,yes,yes,300234066891270,SVP,EC,ICE-PPR,North
2020-11-10T07:59:57Z,1604995197,2020,8,0,315.3333,315.25,83.6764,-141.8724,1016.6,-14.6,-13.0,yes,yes,yes,300234066891270,SVP,EC,ICE-PPR,North
2020-11-10T09:00:00Z,1604998800,2020,9,0,315.375,315.375,83.6656,-141.883,1016.5,-14.3,-12.8,yes,yes,yes,300234066891270,SVP,EC,ICE-PPR,North
2020-11-10T10:00:02Z,1605002403,2020,10,0,315.4167,315.375,83.6656,-141.883,1016.4,-13.9,-12.5,yes,yes,yes,300234066891270,SVP,EC,ICE-PPR,North
2020-11-10T10:59:57Z,1605005997,2020,11,0,315.4583,315.375,83.6656,-141.883,1016.2,-14.3,-12.3,yes,yes,yes,300234066891270,SVP,EC,ICE-PPR,North
2020-11-10T12:00:00Z,1605009600,2020,12,0,315.5,315.5,83.6556,-141.8544,1015.7,-14.8,-12.4,yes,yes,yes,300234066891270,SVP,EC,ICE-PPR,North
2020-11-10T13:00:02Z,1605013203,2020,13,0,315.5417,315.5,83.6556,-141.8544,1015.7,-14.5,-12.4,yes,yes,yes,300234066891270,SVP,EC,ICE-PPR,North
2020-11-10T13:59:57Z,1605016797,2020,14,0,315.5833,315.5,83.6556,-141.8544,1015.3,-14.3,-12.4,yes,yes,yes,300234066891270,SVP,EC,ICE-PPR,North
2020-11-10T15:00:00Z,1605020400,2020,15,0,315.625,315.625,83.6434,-141.8174,1014.9,-14.3,-12.3,yes,yes,yes,300234066891270,SVP,EC,ICE-PPR,North
2020-11-10T16:00:02Z,1605024003,2020,16,0,315.6667,315.625,83.6434,-141.8174,1014.5,-14.3,-12.3,yes,yes,yes,300234066891270,SVP,EC,ICE-PPR,North
2020-11-10T16:59:57Z,1605027597,2020,17,0,315.7083,315.625,83.6434,-141.8174,1014.5,-15.0,-12.4,yes,yes,yes,300234066891270,SVP,EC,ICE-PPR,North
2020-11-10T18:00:00Z,1605031200,2020,18,0,315.75,315.625,83.6434,-141.8174,1014.1,-15.3,-12.5,yes,yes,yes,300234066891270,SVP,EC,ICE-PPR,North
2020-11-10T19:00:02Z,1605034803,2020,19,0,315.7917,315.625,83.6434,-141.8174,1013.6,-15.4,-12.5,yes,yes,yes,300234066891270,SVP,EC,ICE-PPR,North
2020-11-10T19:59:57Z,1605038397,2020,20,0,315.8333,315.625,83.6434,-141.8174,1013.0,-15.7,-12.5,yes,yes,yes,300234066891270,SVP,EC,ICE-PPR,North
2020-11-10T21:00:00Z,1605042000,2020,21,0,315.875,315.875,83.6166,-141.7892,1012.6,-15.7,-12.5,yes,yes,yes,300234066891270,SVP,EC,ICE-PPR,North
2020-11-10T22:00:02Z,1605045603,2020,22,0,315.9167,315.875,83.6166,-141.7892,1012.4,-16.7,-12.6,yes,yes,yes,300234066891270,SVP,EC,ICE-PPR,North
2020-11-10T22:59:57Z,1605049197,2020,23,0,315.9583,315.875,83.6166,-141.7892,1012.3,-17.8,-13.0,yes,yes,yes,300234066891270,SVP,EC,ICE-PPR,North
2020-11-11T00:00:00Z,1605052800,2020,0,0,316.0,316.0,83.6032,-141.7708,1012.2,-17.1,-13.4,yes,yes,yes,300234066891270,SVP,EC,ICE-PPR,North
2020-11-11T01:00:02Z,1605056403,2020,1,0,316.0417,316.0,83.6032,-141.7708,1011.7,-16.8,-13.4,yes,yes,yes,300234066891270,SVP,EC,ICE-PPR,North
2020-11-11T01:59:57Z,1605059997,2020,2,0,316.0833,316.0,83.6032,-141.7708,1010.9,-16.3,-13.3,yes,yes,yes,300234066891270,SVP,EC,ICE-PPR,North
2020-11-11T03:00:00Z,1605063600,2020,3,0,316.125,316.125,83.5886,-141.7266,1010.2,-16.4,-13.2,yes,yes,yes,300234066891270,SVP,EC,ICE-PPR,North
2020-11-11T04:00:02Z,1605067203,2020,4,0,316.1667,316.125,83.5886,-141.7266,1009.6,-16.8,-13.1,yes,yes,yes,300234066891270,SVP,EC,ICE-PPR,North
2020-11-11T04:59:57Z,1605070797,2020,5,0,316.2083,316.125,83.5886,-141.7266,1008.8,-17.2,-13.3,yes,yes,yes,300234066891270,SVP,EC,ICE-PPR,North
2020-11-11T06:00:00Z,1605074400,2020,6,0,316.25,316.25,83.5744,-141.6776,1008.2,-17.0,-13.5,yes,yes,yes,300234066891270,SVP,EC,ICE-PPR,North
2020-11-11T07:00:02Z,1605078003,2020,7,0,316.2917,316.25,83.5744,-141.6776,1007.6,-17.0,-13.5,yes,yes,yes,300234066891270,SVP,EC,ICE-PPR,North
2020-11-11T07:59:57Z,1605081597,2020,8,0,316.3333,316.25,83.5744,-141.6776,1007.1,-16.5,-13.4,yes,yes,yes,300234066891270,SVP,EC,ICE-PPR,North
2020-11-11T09:00:00Z,1605085200,2020,9,0,316.375,316.375,83.5606,-141.6582,1006.7,-16.3,-13.4,yes,yes,yes,300234066891270,SVP,EC,ICE-PPR,North
2020-11-11T10:00:02Z,1605088803,2020,10,0,316.4167,316.375,83.5606,-141.6582,1006.4,-17.0,-13.4,yes,yes,yes,300234066891270,SVP,EC,ICE-PPR,North
2020-11-11T10:59:57Z,1605092397,2020,11,0,316.4583,316.375,83.5606,-141.6582,1005.9,-17.4,-13.6,yes,yes,yes,300234066891270,SVP,EC,ICE-PPR,North
2020-11-11T12:00:00Z,1605096000,2020,12,0,316.5,316.5,83.5494,-141.6546,1005.6,-17.8,-13.8,yes,yes,yes,300234066891270,SVP,EC,ICE-PPR,North